User: anonymous   Login
Location: Unspecified
(0.0000°N, 0.0000°E)
Time: 17:26:22
(UTC+00:00)
Language:

Picosat 9 - Orbit

View from above orbital plane
View from above orbital plane
View from above satellite
View from above satellite

Ground track
Ground track

The orbit data is extracted from the following two-line orbital elements,

1 26930U 01043B   18113.06713635 -.00000047  00000-0  13817-4 0  9999
2 26930  67.0014 328.1884 0002597 298.5052  61.5787 14.30669075864933
Epoch (UTC): 23 April 2018 01:36:40
Eccentricity: 0.0002597
inclination: 67.0014°
perigee height: 787 km
apogee height: 791 km
right ascension of ascending node: 328.1884°
argument of perigee: 298.5052°
revolutions per day: 14.30669075
mean anomaly at epoch: 61.5787°
orbit number at epoch: 86493

The dashed part of the orbit path shows where the satellite is in the earth's shadow,  

DLR